Zurück zum Katalog

STARLINK-31983

AktivKommunikationVLEO
NORAD 60602·PAYLOAD·🇺🇸 United States

Gestartet Aug 20, 2024 von Cape Canaveral Space Force Station

Loading…

Nächste Überflüge (nächste 24 Stunden)

TLE

AktuellSource: CelesTrak SupGP

Epoche: Sep 14, 2026, 20:49 UTC

1 60602C 24150V   26257.86784722 -.00033336  00000+0 -98455-3 0  2572
2 60602  53.1565 144.0444 0001431  96.0438 335.5660 15.34418880    12

Verfolge STARLINK-31983 in Echtzeit mit AllMySat

Download on the App Store